Shannon, Ireland

5:47 PM IST on August 20, 2017 (GMT +0100)
Shannon

Weather History for EINN - February, 2012

Change the Weather History Date:

Thursday, February 16, 2012

  Actual Average Record
Temperature  
Mean Temperature 48 °F -  
Max Temperature 50 °F 49 °F 53 °F (2017)
Min Temperature 46 °F 38 °F 30 °F (2001)
Degree Days  
Heating Degree Days 17    
Moisture  
Dew Point 45 °F    
Average Humidity 89    
Maximum Humidity 100    
Minimum Humidity 75    
Precipitation  
Precipitation 0.02 in 0.09 in - ()
Sea Level Pressure  
Sea Level Pressure 30.45 in    
Wind  
Wind Speed 11 mph ()    
Max Wind Speed 22 mph    
Max Gust Speed -    
Visibility 4.6 miles    
Events Rain    
Averages and records for this station are not official NWS values.
T = Trace of Precipitation, MM = Missing Value Source: Averaged Metar Reports

Daily Weather History Graph

Daily Weather History Graph

Search for Another Location

Airport or City:

Trip Planner

Search our weather history database for the weather conditions in past years. The results will help you decide how hot, cold, wet, or windy it might be!

Date:

Astronomy

Feb. 16, 2012 Rise Set
Actual Time 7:51 AM GMT 5:48 PM GMT
Civil Twilight 7:16 AM GMT 6:24 PM GMT
Nautical Twilight 6:36 AM GMT 7:04 PM GMT
Astronomical Twilight 5:56 AM GMT 7:44 PM GMT
Moon 4:02 AM GMT (2/16) 11:58 AM GMT (2/16)
Length of Visible Light 11h 08m
Length of Day
9h 57m
Waning Crescent, 30% of the Moon is Illuminated
Feb 16
Waning Crescent
Feb 21
New
Mar 1
First Quarter
Mar 8
Full
Mar 15
Last Quarter

Hourly Weather History & Observations

Time (GMT) Temp. Windchill Dew Point Humidity Pressure Visibility Wind Dir Wind Speed Gust Speed Precip Events Conditions
12:00 AM 47 °F - 42 °F 78% 30.58 in 12 mi West 8.9 mph - -   Overcast
12:00 AM 48.2 °F - 42.8 °F 82% 30.57 in 6.2 mi West 8.1 mph - N/A   Overcast
12:30 AM 46.4 °F 42.4 °F 42.8 °F 87% 30.57 in 6.2 mi West 8.1 mph - N/A   Overcast
1:00 AM 48.2 °F - 42.8 °F 82% 30.57 in 6.2 mi West 8.1 mph - N/A   Overcast
1:30 AM 46.4 °F 42.9 °F 42.8 °F 87% 30.57 in 6.2 mi WSW 6.9 mph - N/A   Overcast
2:00 AM 46.4 °F 42.4 °F 42.8 °F 87% 30.54 in 6.2 mi West 8.1 mph - N/A   Overcast
2:30 AM 46.4 °F 43.5 °F 42.8 °F 87% 30.54 in 6.2 mi WSW 5.8 mph - N/A   Overcast
3:00 AM 46.4 °F 42.4 °F 42.8 °F 87% 30.54 in 6.2 mi WSW 8.1 mph - N/A   Overcast
3:30 AM 46.4 °F 41.9 °F 42.8 °F 87% 30.54 in 6.2 mi WSW 9.2 mph - N/A   Overcast
4:00 AM 46.4 °F 42.4 °F 42.8 °F 87% 30.51 in 6.2 mi West 8.1 mph - N/A   Overcast
4:30 AM 46.4 °F 42.4 °F 41.0 °F 81% 30.51 in 6.2 mi WSW 8.1 mph - N/A   Overcast
5:00 AM 46.4 °F 41.5 °F 42.8 °F 87% 30.51 in 6.2 mi WSW 10.4 mph - N/A   Overcast
5:30 AM 46.4 °F 42.4 °F 42.8 °F 87% 30.51 in 6.2 mi WSW 8.1 mph - N/A   Overcast
6:00 AM 46 °F - 41 °F 75% 30.50 in 12 mi WSW 8.9 mph - -   Partly Cloudy
6:00 AM 46.4 °F 42.4 °F 41.0 °F 81% 30.48 in 6.2 mi WSW 8.1 mph - N/A   Overcast
6:30 AM 46.4 °F 42.4 °F 41.0 °F 81% 30.48 in 6.2 mi WSW 8.1 mph - N/A   Overcast
7:00 AM 46.4 °F 41.9 °F 41.0 °F 81% 30.48 in 6.2 mi WSW 9.2 mph - N/A   Overcast
7:30 AM 46.4 °F 41.9 °F 41.0 °F 81% 30.48 in 6.2 mi West 9.2 mph - N/A   Mostly Cloudy
8:00 AM 46.4 °F 39.8 °F 41.0 °F 81% 30.48 in 6.2 mi WSW 16.1 mph - N/A   Mostly Cloudy
8:30 AM 46.4 °F 40.7 °F 41.0 °F 81% 30.48 in 6.2 mi SW 12.7 mph - N/A   Mostly Cloudy
9:00 AM 46.4 °F 42.4 °F 42.8 °F 87% 30.48 in 6.2 mi SW 8.1 mph - N/A   Mostly Cloudy
9:30 AM 48.2 °F - 42.8 °F 82% 30.48 in 6.2 mi WSW 13.8 mph - N/A   Mostly Cloudy
10:00 AM 48.2 °F - 42.8 °F 82% 30.48 in 6.2 mi WSW 12.7 mph - N/A   Mostly Cloudy
10:30 AM 50.0 °F - 44.6 °F 82% 30.45 in 6.2 mi WSW 17.3 mph - N/A   Mostly Cloudy
11:00 AM 50.0 °F - 44.6 °F 82% 30.45 in 6.2 mi WSW 21.9 mph - N/A   Mostly Cloudy
11:30 AM 50.0 °F - 46.4 °F 87% 30.45 in 6.2 mi WSW 20.7 mph - N/A   Mostly Cloudy
12:00 PM 49 °F - 46 °F 85% 30.47 in 4 mi WSW 20.1 mph - - Rain Light Drizzle
12:00 PM 48.2 °F - 46.4 °F 93% 30.45 in 3.7 mi WSW 19.6 mph - N/A   Light Drizzle
12:30 PM 50.0 °F - 44.6 °F 82% 30.45 in 6.2 mi WSW 17.3 mph - N/A   Mostly Cloudy
1:00 PM 50.0 °F - 46.4 °F 87% 30.42 in 6.2 mi WSW 20.7 mph - N/A   Mostly Cloudy
1:30 PM 50.0 °F - 46.4 °F 87% 30.42 in 6.2 mi WSW 19.6 mph - N/A   Light Drizzle
2:00 PM 50.0 °F - 46.4 °F 87% 30.42 in 6.2 mi WSW 19.6 mph - N/A   Mostly Cloudy
2:30 PM 50.0 °F - 48.2 °F 94% 30.39 in 2.5 mi WSW 19.6 mph - N/A   Light Drizzle
3:00 PM 48.2 °F - 48.2 °F 100% 30.39 in 1.6 mi WSW 16.1 mph - N/A   Light Drizzle
3:30 PM 48.2 °F - 48.2 °F 100% 30.39 in 1.9 mi SW 12.7 mph - N/A   Light Drizzle
4:00 PM 50.0 °F - 48.2 °F 94% 30.39 in 1.6 mi WSW 15.0 mph - N/A   Light Drizzle
4:30 PM 48.2 °F - 48.2 °F 100% 30.36 in 1.6 mi WSW 17.3 mph - N/A   Light Drizzle
5:00 PM 48.2 °F - 48.2 °F 100% 30.36 in 1.6 mi WSW 17.3 mph - N/A   Light Drizzle
5:30 PM 48.2 °F - 48.2 °F 100% 30.36 in 1.7 mi WSW 17.3 mph - N/A   Light Drizzle
6:00 PM 49 °F - 48 °F 96% 30.39 in 1 mi WSW 15.7 mph - - Rain Light Drizzle
6:00 PM 48.2 °F - 48.2 °F 100% 30.36 in 1.5 mi WSW 15.0 mph - N/A   Light Drizzle
6:30 PM 48.2 °F - 48.2 °F 100% 30.36 in 1.7 mi WSW 13.8 mph - N/A   Light Drizzle
7:00 PM 48.2 °F - 48.2 °F 100% 30.36 in 1.7 mi WSW 15.0 mph - N/A   Light Drizzle
7:30 PM 48.2 °F - 48.2 °F 100% 30.36 in 1.9 mi WSW 13.8 mph - N/A   Light Drizzle
8:00 PM 48.2 °F - 48.2 °F 100% 30.36 in 1.5 mi WSW 13.8 mph - N/A   Light Drizzle
8:30 PM 50.0 °F - 48.2 °F 94% 30.36 in 1.5 mi WSW 12.7 mph - N/A   Light Drizzle
9:00 PM 48.2 °F - 48.2 °F 100% 30.36 in 1.5 mi WSW 12.7 mph - N/A   Light Drizzle
9:30 PM 48.2 °F - 48.2 °F 100% 30.36 in 1.5 mi SW 11.5 mph - N/A   Light Drizzle
10:00 PM 48.2 °F - 48.2 °F 100% 30.36 in 1.5 mi WSW 11.5 mph - N/A   Light Drizzle
10:30 PM 50.0 °F - 48.2 °F 94% 30.36 in 1.5 mi WSW 13.8 mph - N/A Rain Light Rain
11:00 PM 50.0 °F - 48.2 °F 94% 30.33 in 1.5 mi WSW 13.8 mph - N/A Rain Light Rain
11:30 PM 50.0 °F - 48.2 °F 94% 30.36 in 1.6 mi WSW 13.8 mph - N/A Rain Light Rain